User: anonymous   Login
Location: Unspecified
(0.0000°N, 0.0000°E)
Time: 01:09:34
(UTC+00:00)
Language:

OBJECT AS - Orbit

View from above orbital plane
View from above orbital plane
View from above satellite
View from above satellite

Ground track
Ground track

The orbit is defined by the following mean orbital elements,

1 57206U          26145.62726534 +.00000000 +00000-0 +90326-3 0 00009
2 57206  97.5055 224.1214 0004859 131.9174 228.2497 15.59661769    00
Epoch (UTC): 25 May 2026 15:03:15
Eccentricity: 0.0004859
inclination: 97.5055°
perigee height: 385 km
apogee height: 392 km
right ascension of ascending node: 224.1214°
argument of perigee: 131.9174°
revolutions per day: 15.59661769
mean anomaly at epoch: 228.2497°

The dashed part of the orbit path shows where the satellite is in the earth's shadow,  

DLR